Погода в Ехегнадзоре

Армения     39˚46′01″N   45˚19′58″E
темп.,
°C
ветер,
м/с
пор.,
м/с
влажн.,
%
обл.,
%
осадки,
мм/ч
давл.,
гПа
погр.,
м
5 декабря, сб
сб501:00−3˚св12760 0.0 102921
04:00−4˚св12730 0.0 102821
07:00−5˚св12780 0.0 102821
10:00св11560 0.0 1028193
13:00+2˚юз11545 0.0 1025655
16:00+3˚зюз115210 0.0 1024756
19:00−1˚сз11760 0.0 102521
22:00−3˚св12671 0.0 102521
6 декабря, вс
вс601:00−4˚св12725 0.0 102521
04:00−4˚св127230 0.0 102524
07:00−5˚св117517 0.0 102522
10:00−1˚всв115643 0.0 1025238
13:00+1˚юз114974 0.0 1023727
16:00+2˚юз215683 0.1 1023777
19:00−2˚юз1186100 0.1 102560
22:00−3˚св119099 0.3 102736
7 декабря, пн
пн701:00−4˚ссв018883 0.1 102821
04:00−5˚св118582 0.1 102921
07:00−5˚всв117773 0.0 102921
10:00−2˚св015865 0.0 1031262
13:00юз115466 0.0 1028758
16:00+1˚зюз225454 0.0 1027809
19:00−3˚зсз127014 0.0 102921
22:00−3˚св127126 0.0 103022
8 декабря, вт
вт801:00−4˚ссв127465 0.0 103022
04:00−5˚св127839 0.0 102921
07:00−5˚св12795 0.0 103021
10:00−1˚всв115624 0.0 1030217
13:00+2˚ю015029 0.0 1028617
16:00+3˚з115114 0.0 1026628
19:00−2˚с11680 0.0 102822
22:00−2˚св12660 0.0 102921
9 декабря, ср
ср901:00−3˚св11710 0.0 102921
04:00−4˚всв11766 0.0 102921
07:00−4˚св117290 0.0 102821
10:00+1˚всв015495 0.0 1028105
13:00+3˚зюз114780 0.0 1026480
16:00+3˚юз215687 0.1 1025372
19:00ююз017890 0.0 102622
22:00−1˚ю008491 0.1 102722